{"data":{"norad_id":28089,"epoch":"2026-05-24T14:49:52.475808Z","epoch_age_seconds":107267,"freshness":"FRESH","line1":"1 28089U 03053A   26144.61796847 -.00000083  00000+0  00000+0 0  9993","line2":"2 28089   6.2854  71.2169 0003327 330.7895 226.2319  1.00271953 82463","mean_motion":1.00271953,"eccentricity":0.0003327,"inclination_deg":6.2854,"raan_deg":71.2169,"arg_perigee_deg":330.7895,"mean_anomaly_deg":226.2319,"bstar":0,"rev_number":8246,"period_min":1436.09449793,"perigee_km":35772.519674103,"apogee_km":35800.576055412,"semimajor_km":42164.684864758,"source":"CELESTRAK","updated_at":"2026-05-25T13:38:13.817056Z"}}